sat.trackr.live / text

‹ back to catalog

STARLINK-36403

NORAD 67563 · 2026-016C

PAYLOAD ACTIVE UNKNOWN

§ Identity

Operator
Country
US
Launch date
2026-01-25
Launch site
AFWTR
Launch vehicle
Mass (kg)
RCS (m²)

Purposes: comms

External: N2YO · Heavens-Above · Gunter

§ Orbital elements

Epoch: 2026-09-19T09:46:44.210496Z

Period
93.91 min
Inclination
97.2865°
Eccentricity
0.0000726
Mean motion
15.33443686 rev/d
Perigee alt
465.1 km
Apogee alt
466.0 km
Semi-major
6,843.7 km
B*
3.4423e-4
RAAN
321.0921°
Arg perigee
89.2857°
Mean anomaly
270.8469°
Rev number
3,655

§ Raw data

STARLINK-364031 67563U 26016C   26262.40745614  .00011054  00000+0  34423-3 0  99902 67563  97.2865 321.0921 0000726  89.2857 270.8469 15.33443686 36556

JSON: /api/v1/satellites/67563 · /tle

For live sub-satellite position, see the globe view (requires WebGL).

§ Visibility from observer

Set your observer location to see the next 7 days of passes ≥ 10°. The values pass through the URL so the page stays shareable.

No JS? Fill the form by hand. The geolocation button needs JavaScript.